Погода в Порт-Линкольне

Австралия     34°44′18″S   135°51′12″E
темп.,
°C
ветер,
м/с
пор.,
м/с
влажн.,
%
обл.,
%
осадки,
мм/ч
давл.,
гПа
погр.,
м
6 марта, сб
сб601:30+15вюв71174100 0.0 1014430
04:30+15в6108093 0.0 1012439
07:30+15вюв598592 0.0 1012312
10:30+19в676690 0.0 1013448
13:30+22всв4458100 0.0 1012532
16:30+19в5663100 0.0 1010275
19:30+19вюв4564100 0.0 1010205
22:30+17в3674100 0.0 1010110
7 марта, вс
вс701:30+17в587841 0.0 1008207
04:30+17всв357548 0.0 1008187
07:30+18юв3577100 0.2 1008142
10:30+19в4670100 0.2 1009227
13:30+21в336199 0.1 1008225
16:30+18ююв677699 0.5 1007257
19:30+17ююв6979100 0.0 1008310
22:30+16ююв6108773 0.0 1010320
8 марта, пн
пн801:30+15юв58910 0.0 1009273
04:30+16ююв698529 0.0 1009419
07:30+15ююв5108975 0.0 1010403
10:30+19юв796887 0.0 1012622
13:30+22юв7956100 0.0 1012781
16:30+20ююв8106496 0.0 1011696
19:30+17ююв8127699 0.0 1012527
22:30+16ююв8128183 0.0 1014614
9 марта, вт
вт901:30+16ююв7117989 0.0 1015629
04:30+15ююв6118286 0.0 1015610
07:30+15юв7128425 0.0 1016697
10:30+18юв9126747 0.0 1017817
13:30+21юв911588 0.0 1016955
16:30+19ююв10126417 0.0 1016843
19:30+16ююв811745 0.0 1017685
22:30+15юв711753 0.0 1018568
10 марта, ср
ср1001:30+14юв610794 0.0 1018548
04:30+15юв611825 0.4 1017540
07:30+15юв6118421 0.0 1018526
10:30+18вюв8106911 0.0 1019628
13:30+21вюв79550 0.0 1018650
16:30+22юв67510 0.0 1016695
19:30+18ююв57700 0.0 1017417
22:30+16юв48860 0.0 1018261